Location: Memphis International Airport Police
(35.0443°N, 89.9815°W)
Time: 19:53:02
(UTC+00:00)

Cosmos 1833 - Pass Details

Date: 26 September 2023
Orbit: 833 x 865 km, 70.9° (Epoch: 10 December)

Event Time Altitude Azimuth Distance (km) Brightness Sun altitude
Exits shadow 09:56:02 57° 229° (SW) 982 4.2 -24.0°
Maximum altitude 09:57:07 74° 292° (WNW) 876 4.0 -23.8°
Drops below altitude 10° 10:02:45 10° 17° (NNE) 2,453 7.0 -22.7°
Sets 10:05:12 0° 20° (NNE) 3,388 7.8 -22.2°
